This is the latest recevied weather packets stored in our database for station/object VR2OT-10. If no packets are shown the sender has not sent any weather packets the latest 10 day(s).
| Time | Temp. | Humidity | Pressure | Rain* | Wind** | Luminosity | Snow |
|---|---|---|---|---|---|---|---|
| 1777644139 | 23.33° C | 82% | 1014 hPa | - | 3.13 m/s, 90° | - | - |
| 1777643237 | 23.33° C | 83% | 1014 hPa | - | 3.58 m/s, 90° | - | - |
| 1777641438 | 23.33° C | 82% | 1013.6 hPa | - | 3.58 m/s, 90° | - | - |
| 1777640538 | 22.78° C | 81% | 1013.5 hPa | - | 3.58 m/s, 90° | - | - |
| 1777639638 | 22.78° C | 81% | 1013.5 hPa | - | 3.58 m/s, 90° | - | - |
| 1777638739 | 22.78° C | 81% | 1013.5 hPa | - | 3.58 m/s, 90° | - | - |
| 1777637838 | 22.78° C | 81% | 1013.5 hPa | - | 4.02 m/s, 90° | - | - |
| 1777635137 | 22.78° C | 79% | 1013.2 hPa | - | 3.58 m/s, 90° | - | - |
| 1777633338 | 22.78° C | 79% | 1013.3 hPa | - | 4.92 m/s, 90° | - | - |
| 1777632438 | 22.78° C | 79% | 1013.1 hPa | - | 4.02 m/s, 90° | - | - |
| 1777631539 | 22.78° C | 78% | 1012.8 hPa | - | 4.02 m/s, 90° | - | - |
| 1777629739 | 22.78° C | 78% | 1012.8 hPa | - | 4.02 m/s, 90° | - | - |
| 1777628838 | 22.78° C | 78% | 1012.8 hPa | - | 3.58 m/s, 90° | - | - |
| 1777627939 | 22.78° C | 77% | 1012.6 hPa | - | 4.02 m/s, 90° | - | - |
| 1777627038 | 22.78° C | 77% | 1012.7 hPa | - | 4.47 m/s, 90° | - | - |
| 1777626138 | 23.33° C | 76% | 1012.6 hPa | - | 4.02 m/s, 90° | - | - |
| 1777625237 | 23.33° C | 76% | 1012.6 hPa | - | 3.58 m/s, 90° | - | - |
| 1777624337 | 23.33° C | 75% | 1012.7 hPa | - | 3.58 m/s, 90° | - | - |
| 1777623438 | 23.33° C | 74% | 1012.7 hPa | - | 4.02 m/s, 90° | - | - |
| 1777622539 | 22.78° C | 72% | 1012.8 hPa | - | 4.02 m/s, 90° | - | - |
| 1777621638 | 22.78° C | 73% | 1013 hPa | - | 4.92 m/s, 90° | - | - |
| 1777619839 | 22.78° C | 74% | 1013.2 hPa | - | 4.92 m/s, 90° | - | - |
| 1777618938 | 22.78° C | 72% | 1013.3 hPa | - | 4.92 m/s, 90° | - | - |
| 1777618038 | 22.78° C | 72% | 1013.6 hPa | - | 4.02 m/s, 90° | - | - |
| 1777616238 | 23.33° C | 72% | 1013.8 hPa | - | 4.47 m/s, 135° | - | - |
* Rain since midnight (hover to see other rain measurements)
** Current wind speed in m/s (hover to see current wind gust speed)